sat.trackr.live / text

‹ back to catalog

ASO-S

NORAD 54029 · 2022-129A

PAYLOAD ACTIVE UNKNOWN

§ Identity

Operator
Country
PRC
Launch date
2022-10-08
Launch site
JSC
Launch vehicle
Mass (kg)
RCS (m²)

External: N2YO · Heavens-Above · Gunter

§ Orbital elements

Epoch: 2026-09-20T23:10:46.981056Z

Period
99.17 min
Inclination
98.2800°
Eccentricity
0.0014808
Mean motion
14.52097115 rev/d
Perigee alt
708.3 km
Apogee alt
729.3 km
Semi-major
7,096.9 km
B*
3.3428e-5
RAAN
267.6988°
Arg perigee
153.9246°
Mean anomaly
206.2698°
Rev number
20,932

§ Raw data

ASO-S1 54029U 22129A   26263.96582154  .00000091  00000+0  33428-4 0  99982 54029  98.2800 267.6988 0014808 153.9246 206.2698 14.52097115209320

JSON: /api/v1/satellites/54029 · /tle

For live sub-satellite position, see the globe view (requires WebGL).

§ Visibility from observer

Set your observer location to see the next 7 days of passes ≥ 10°. The values pass through the URL so the page stays shareable.

No JS? Fill the form by hand. The geolocation button needs JavaScript.

§ Radio — SatNOGS DB

ModeDescriptionDownlinkUplink
BPSK S-band telemetry 2.221 GHz
FM S-band telemetry (inactive) 2.207 GHz

2 transmitters · refreshed weekly from db.satnogs.org